Wind_Speed
30 29 29 28 28 27 26 25 25 25 25 24 23 22 22 21 21 20 20 19 19 18 18 17 17 17 17 16 16 16 16 16 16 16 17 17 17 17 18 18 19 19 20
32 31 30 30 30 29 28 28 27 27 26 26 25 24 23 23 22 22 22 21 21 20 20 19 19 19 19 19 18 18 18 18 18 18 18 18 19 19 19 20 20 20 21
34 33 32 31 31 31 30 29 28 28 28 27 26 26 25 25 24 24 23 22 22 22 21 20 20 20 19 19 19 19 19 19 19 19 19 20 20 20 20 21 22 22 23
36 35 34 33 32 32 31 31 30 29 29 28 27 27 27 27 26 25 25 24 23 23 22 21 21 20 20 20 20 20 20 20 20 20 20 20 21 21 22 22 23 23 24
38 37 36 35 34 33 33 32 32 31 30 29 29 29 29 28 27 27 26 26 25 25 24 23 23 22 22 21 21 21 21 21 21 21 21 21 22 22 22 23 23 24 25
40 39 38 37 36 35 34 33 33 33 32 31 31 30 30 30 29 28 28 27 27 27 26 26 25 24 24 24 23 23 23 23 22 22 22 22 23 23 23 24 24 25 25
42 41 41 40 39 38 37 36 35 35 34 33 32 32 31 31 31 31 30 29 29 28 28 28 27 26 26 25 25 25 24 24 24 24 23 24 24 24 24 25 25 26 26
45 44 43 42 41 40 39 38 37 36 36 35 34 34 33 32 32 31 31 31 31 30 29 29 28 28 27 26 26 26 25 25 25 25 25 25 25 25 26 26 26 27 26
46 45 44 44 43 42 40 39 38 38 38 37 36 36 35 34 33 32 32 32 32 31 30 30 29 28 28 27 27 27 26 26 26 26 27 27 27 27 27 27 28 28 28
48 47 45 45 44 44 43 41 40 40 40 39 38 38 37 36 35 34 33 32 32 32 31 31 30 30 29 28 28 28 27 27 27 28 28 28 28 28 29 29 29 29 29
51 49 48 48 47 46 45 44 43 42 41 40 40 39 39 37 36 35 35 34 33 32 32 32 31 31 30 30 29 29 29 29 29 29 29 29 30 30 30 30 30 30 30
51 51 50 48 47 47 47 46 44 43 42 42 41 40 40 39 37 37 36 35 34 34 33 33 33 32 31 31 31 30 30 31 31 31 31 31 31 31 31 31 31 31 31
52 52 52 51 49 49 48 47 46 45 44 42 41 41 41 40 38 38 38 37 36 35 35 34 34 34 34 33 32 32 32 33 33 33 33 32 32 32 32 32 33 33 34
52 53 52 52 51 50 49 48 48 47 46 44 42 41 41 41 40 40 39 39 38 37 37 36 35 35 35 35 34 34 34 34 34 34 35 35 34 34 34 34 35 35 36
55 54 52 52 52 51 50 49 48 48 47 46 45 43 42 42 41 41 41 41 40 39 39 38 37 36 36 36 35 35 35 36 36 36 36 36 35 36 36 36 36 37 38
58 56 54 53 52 51 51 50 49 49 48 48 47 46 45 44 43 43 42 42 42 41 40 39 39 38 38 38 38 37 37 38 38 37 38 38 38 38 38 38 39 39 39
59 58 56 55 53 53 52 51 50 50 49 49 49 48 47 46 46 45 44 44 43 42 41 40 40 40 40 40 39 39 39 39 39 39 39 40 40 40 40 40 40 41 41
60 60 58 57 56 54 54 54 53 52 51 51 50 49 48 47 47 46 46 45 45 45 44 42 42 42 42 42 41 41 41 41 41 41 42 42 42 42 42 42 42 43 43
58 60 59 58 57 56 55 55 55 54 52 51 51 50 49 49 48 48 48 47 47 47 46 45 44 44 44 44 44 43 43 43 43 43 44 43 43 44 44 44 44 45 45
57 58 58 58 58 58 56 56 56 55 54 52 51 50 50 50 50 50 49 49 49 48 47 47 46 46 46 46 46 46 46 45 45 45 45 45 45 46 46 46 47 47 47
56 58 58 58 57 57 56 57 57 56 55 54 54 52 51 51 51 51 50 50 50 49 49 48 48 48 48 47 47 48 48 47 47 47 47 47 47 48 48 48 48 49 49
55 57 57 57 57 56 57 58 59 58 57 56 55 54 53 53 52 52 51 51 50 50 49 49 49 49 50 49 49 49 49 50 49 49 49 49 49 49 50 50 50 50 50
55 56 57 57 56 56 57 58 58 58 58 57 57 55 54 54 54 53 52 52 51 51 51 51 51 51 51 50 50 50 50 50 49 50 50 50 50 50 50 50 51 51 51
55 56 57 58 58 58 57 58 58 59 59 59 58 56 55 54 54 54 53 52 51 52 52 52 51 51 52 51 51 51 51 51 50 50 50 50 50 51 51 52 52 52 52
53 54 56 57 58 58 59 59 58 58 59 59 58 58 56 56 55 54 54 53 53 52 52 52 52 52 52 52 52 52 52 52 51 51 51 51 51 52 52 52 52 52 52
52 53 55 56 57 57 58 59 59 59 59 58 58 57 56 56 55 54 54 54 53 52 52 52 52 52 52 52 52 52 52 52 52 52 52 52 52 52 52 52 52 52 52
Wind_Direction
238 239 240 240 241 242 243 244 244 244 245 246 246 247 248 250 251 253 256 256 258 261 264 266 267 268 270 272 276 279 283 285 288 291 294 296 298 300 303 306 308 310 311
239 240 241 241 241 242 244 244 244 244 246 246 247 247 247 249 251 253 255 255 256 259 262 265 266 269 270 272 275 278 282 284 286 289 291 293 295 298 300 302 305 307 309
239 240 241 241 241 242 243 243 244 244 245 247 247 247 248 249 251 253 255 255 256 258 260 262 265 268 270 271 273 277 281 283 286 288 289 291 294 296 298 300 302 304 306
240 240 240 241 241 242 243 243 244 244 245 246 248 248 250 251 252 254 255 255 256 256 258 261 264 266 269 271 274 277 280 282 285 287 289 291 293 295 297 298 300 302 304
239 240 241 241 242 242 243 244 245 245 245 246 248 249 250 252 252 253 255 256 256 257 259 261 264 266 267 270 273 277 280 282 285 285 287 290 293 295 296 297 299 301 303
239 240 241 242 242 243 243 244 245 246 246 246 247 249 251 252 252 253 255 255 257 258 260 261 262 264 266 269 272 276 279 281 284 286 287 289 292 294 295 296 297 300 301
239 240 241 242 243 244 244 244 245 246 245 246 247 248 250 251 252 253 255 256 257 259 260 262 262 263 265 268 271 274 277 279 282 284 288 290 291 293 294 296 297 300 300
240 241 241 242 243 244 243 244 245 246 245 246 247 248 249 251 252 253 255 256 257 259 260 262 262 263 265 267 270 272 274 277 280 283 285 289 291 292 293 295 296 298 299
238 239 240 241 241 242 242 242 243 245 246 247 248 249 249 250 252 253 254 255 256 257 259 260 262 264 265 267 269 271 272 276 279 281 284 287 289 292 293 295 296 297 298
237 237 238 239 239 240 242 242 243 244 246 246 248 249 249 250 251 252 253 255 257 257 258 260 262 263 264 267 268 269 272 275 278 280 283 286 288 289 291 292 294 296 296
237 237 237 238 239 239 240 242 243 244 245 246 248 249 249 250 251 252 253 255 256 256 258 260 261 262 264 266 268 269 272 274 277 279 282 283 285 287 289 291 292 293 295
236 236 237 238 238 238 239 241 243 244 245 246 248 249 248 249 250 252 252 253 255 256 258 259 260 261 264 266 267 269 271 274 276 278 280 281 284 286 288 289 291 292 293
237 237 237 239 239 239 240 241 242 243 245 246 247 248 248 249 250 251 251 252 254 256 257 258 259 261 263 265 267 269 271 273 274 277 279 281 283 285 287 288 289 291 291
239 238 238 239 239 240 241 242 243 243 244 244 245 246 247 249 250 251 251 252 253 255 256 258 260 262 263 264 266 268 271 272 274 276 278 281 283 284 285 287 288 289 290
240 239 239 239 239 239 240 241 243 244 244 243 244 245 246 248 250 250 251 251 253 255 256 257 259 261 263 264 266 269 271 272 274 276 278 280 281 282 283 285 287 288 289
241 241 240 240 239 240 240 241 243 244 245 245 245 245 246 247 248 249 250 252 253 254 255 257 259 261 263 264 266 268 270 271 273 275 278 279 280 281 282 284 285 287 288
242 243 243 241 241 240 240 242 243 244 245 246 247 247 247 248 249 250 251 252 253 254 255 257 259 261 264 265 266 267 269 271 273 275 277 278 280 281 282 283 285 287 288
242 242 243 243 243 242 241 242 242 243 245 246 246 247 247 249 250 250 251 252 254 255 257 258 259 261 264 266 267 268 269 271 273 275 276 277 279 281 282 283 284 286 287
242 243 243 243 243 243 242 241 242 243 244 244 246 247 246 247 249 250 251 252 254 256 257 258 259 261 264 266 267 269 271 272 274 275 276 276 278 280 281 283 284 285 286
242 242 242 242 242 242 242 242 242 242 243 244 246 247 247 247 248 250 251 252 254 256 257 258 259 261 263 265 267 268 270 272 274 275 276 277 278 280 281 282 283 284 285
242 242 241 242 242 241 240 240 242 242 242 244 245 246 247 248 249 249 250 252 254 256 257 258 259 261 262 264 267 268 269 271 273 275 275 277 278 281 281 282 283 283 284
242 242 242 241 241 240 240 241 242 243 243 245 245 245 246 248 248 249 250 252 254 256 257 258 260 261 263 264 266 267 269 271 272 274 275 276 278 279 280 282 283 283 284
242 242 242 241 241 242 242 242 243 245 245 246 246 246 247 248 249 250 251 252 254 256 257 259 261 262 263 264 266 267 269 271 272 273 274 276 277 278 279 281 282 284 284
243 243 243 242 242 243 243 244 244 244 245 245 246 246 247 249 250 251 251 252 254 256 257 259 261 262 262 263 265 267 269 270 271 272 274 276 277 278 280 281 283 284 285
245 244 244 243 243 243 244 244 244 244 244 245 246 246 247 248 249 250 252 252 253 255 257 258 260 261 262 264 266 267 269 270 271 272 274 276 277 278 280 282 283 283 284
246 246 245 244 243 243 244 244 243 244 244 245 245 246 247 248 249 251 253 253 254 255 257 259 260 261 262 264 266 267 269 270 271 272 273 275 276 278 279 281 282 283 284
Height
5814 5817 5820 5822 5825 5827 5829 5831 5833 5835 5837 5839 5841 5843 5845 5846 5848 5849 5850 5851 5852 5853 5853 5854 5854 5854 5855 5855 5855 5855 5855 5855 5855 5854 5853 5853 5852 5851 5850 5849 5847 5846 5844
5808 5811 5813 5816 5818 5821 5824 5826 5828 5830 5832 5834 5836 5838 5840 5841 5843 5844 5845 5847 5847 5848 5849 5850 5850 5850 5851 5851 5851 5851 5851 5851 5851 5850 5850 5849 5848 5847 5846 5845 5844 5842 5841
5801 5804 5807 5809 5812 5815 5817 5819 5822 5824 5826 5829 5831 5833 5834 5836 5838 5839 5840 5842 5843 5844 5844 5845 5846 5846 5847 5847 5847 5847 5847 5847 5846 5846 5845 5845 5844 5843 5842 5841 5840 5838 5837
5793 5796 5799 5802 5805 5808 5810 5813 5815 5818 5820 5823 5825 5827 5829 5831 5832 5834 5835 5837 5838 5839 5840 5840 5841 5842 5842 5842 5843 5843 5843 5842 5842 5841 5841 5840 5839 5838 5837 5836 5835 5833 5832
5785 5788 5792 5795 5798 5801 5803 5806 5809 5811 5814 5816 5818 5820 5822 5824 5826 5828 5830 5831 5832 5833 5834 5835 5836 5837 5837 5838 5838 5838 5838 5837 5837 5837 5836 5835 5834 5834 5833 5831 5830 5829 5827
5776 5780 5783 5787 5790 5793 5796 5799 5802 5804 5807 5810 5812 5814 5816 5818 5820 5822 5823 5825 5826 5828 5829 5830 5831 5831 5832 5833 5833 5833 5832 5832 5832 5831 5831 5830 5829 5829 5828 5826 5825 5823 5822
5767 5770 5774 5778 5781 5785 5788 5791 5794 5797 5800 5802 5805 5807 5809 5811 5813 5815 5817 5818 5820 5821 5822 5823 5825 5826 5826 5827 5827 5827 5827 5827 5827 5826 5826 5825 5824 5823 5822 5821 5820 5818 5816
5757 5761 5765 5768 5772 5775 5779 5782 5786 5789 5792 5795 5797 5799 5802 5804 5806 5808 5810 5812 5813 5815 5816 5817 5818 5819 5820 5821 5821 5821 5822 5821 5821 5820 5820 5819 5819 5818 5816 5815 5814 5812 5811
5746 5750 5754 5758 5762 5766 5769 5773 5776 5780 5783 5786 5789 5792 5794 5796 5798 5800 5802 5804 5806 5808 5809 5810 5811 5812 5813 5814 5815 5815 5815 5815 5815 5814 5814 5813 5813 5812 5810 5809 5808 5806 5805
5736 5740 5743 5748 5752 5756 5760 5763 5766 5770 5774 5777 5780 5783 5786 5788 5791 5793 5795 5797 5799 5800 5802 5803 5804 5805 5806 5807 5808 5808 5809 5809 5809 5808 5808 5807 5806 5805 5804 5803 5802 5800 5798
5724 5729 5733 5737 5741 5746 5750 5753 5757 5760 5764 5767 5770 5773 5776 5779 5782 5785 5787 5789 5791 5793 5794 5796 5797 5798 5799 5800 5801 5802 5802 5802 5802 5802 5801 5800 5799 5798 5797 5796 5795 5793 5792
5713 5717 5722 5726 5730 5735 5739 5743 5747 5750 5754 5758 5761 5764 5767 5770 5773 5776 5778 5781 5783 5785 5786 5788 5789 5790 5791 5793 5793 5794 5794 5795 5795 5794 5794 5793 5792 5791 5790 5789 5788 5786 5785
5701 5706 5710 5715 5719 5724 5728 5732 5736 5740 5744 5748 5751 5754 5757 5761 5764 5766 5769 5772 5774 5776 5778 5779 5781 5782 5783 5785 5786 5786 5787 5787 5787 5786 5786 5785 5784 5783 5782 5781 5780 5778 5777
5689 5694 5698 5703 5708 5713 5717 5721 5725 5729 5733 5737 5741 5744 5748 5751 5754 5757 5760 5762 5765 5768 5769 5771 5772 5773 5775 5776 5777 5778 5778 5778 5778 5778 5777 5777 5776 5775 5774 5773 5771 5770 5768
5677 5681 5686 5691 5696 5701 5706 5710 5715 5719 5723 5727 5731 5734 5737 5741 5744 5747 5750 5753 5756 5758 5761 5762 5763 5764 5765 5767 5768 5769 5769 5769 5769 5769 5768 5768 5767 5766 5765 5764 5763 5761 5759
5663 5669 5673 5679 5684 5689 5694 5699 5703 5708 5712 5716 5720 5723 5727 5730 5733 5736 5739 5742 5745 5748 5751 5752 5753 5755 5756 5757 5758 5759 5759 5760 5760 5759 5759 5758 5758 5757 5756 5755 5753 5752 5750
5650 5656 5661 5666 5671 5676 5682 5687 5692 5696 5701 5705 5708 5712 5716 5719 5723 5726 5729 5731 5734 5737 5740 5742 5743 5745 5746 5747 5748 5749 5750 5750 5750 5750 5749 5748 5747 5747 5746 5745 5743 5741 5739
5637 5642 5647 5653 5658 5663 5669 5674 5679 5684 5689 5693 5697 5700 5704 5708 5711 5714 5718 5721 5723 5726 5729 5731 5733 5734 5735 5736 5738 5739 5739 5739 5740 5739 5739 5738 5737 5736 5735 5734 5732 5730 5728
5623 5628 5633 5639 5645 5650 5655 5661 5666 5671 5676 5680 5684 5688 5692 5696 5700 5703 5706 5709 5712 5714 5717 5720 5722 5723 5724 5725 5727 5727 5728 5728 5728 5728 5728 5727 5726 5725 5724 5723 5721 5719 5717
5609 5614 5620 5625 5630 5636 5642 5647 5652 5658 5663 5668 5672 5676 5680 5684 5688 5691 5694 5697 5700 5703 5705 5708 5710 5712 5713 5714 5715 5716 5717 5717 5717 5717 5716 5716 5715 5713 5712 5711 5709 5707 5705
5595 5600 5605 5611 5616 5622 5627 5633 5638 5644 5649 5654 5659 5663 5667 5672 5675 5679 5682 5685 5688 5690 5693 5695 5698 5699 5701 5702 5703 5704 5705 5705 5705 5705 5704 5704 5703 5701 5700 5698 5696 5694 5692
5582 5587 5592 5597 5602 5607 5613 5618 5624 5630 5635 5640 5645 5650 5654 5658 5662 5666 5669 5672 5675 5678 5681 5683 5685 5687 5689 5690 5691 5691 5692 5693 5693 5693 5692 5691 5690 5689 5687 5686 5684 5682 5680
5568 5573 5578 5583 5588 5594 5598 5603 5609 5615 5620 5626 5631 5636 5640 5645 5648 5652 5656 5659 5662 5665 5668 5670 5672 5674 5676 5677 5678 5679 5679 5679 5680 5679 5679 5678 5677 5676 5674 5672 5671 5669 5667
5554 5559 5564 5569 5574 5580 5584 5589 5594 5599 5605 5611 5617 5622 5627 5631 5635 5639 5642 5646 5649 5652 5655 5657 5660 5661 5662 5663 5664 5665 5665 5666 5666 5666 5665 5665 5664 5663 5661 5659 5657 5655 5653
5540 5544 5550 5555 5560 5565 5570 5575 5580 5585 5591 5597 5602 5607 5612 5617 5621 5625 5628 5632 5635 5638 5640 5643 5645 5647 5648 5649 5650 5651 5651 5652 5653 5653 5652 5651 5651 5649 5648 5647 5644 5642 5639
5526 5530 5535 5540 5545 5550 5555 5560 5565 5571 5577 5583 5588 5593 5598 5602 5606 5610 5614 5618 5621 5624 5626 5629 5631 5633 5634 5635 5636 5637 5638 5638 5638 5639 5638 5637 5637 5635 5635 5634 5631 5628 5625